RH
48 41 31 28 25 23 25 35 36 40 49 58 60 61 61 58 50 46 53 55 36 37 42 47 52 60 56 42 34 45 38 36 40 36 44 47 39 34 33 32 31 30 29
44 40 31 24 22 20 18 22 25 29 38 51 64 63 60 56 48 47 53 66 55 46 45 51 54 48 47 34 35 37 37 38 40 41 39 38 38 36 36 35 34 33 33
43 41 35 22 20 18 19 25 22 19 25 40 56 57 51 46 41 46 47 54 65 57 48 50 39 37 37 34 36 38 40 41 40 38 37 34 34 33 32 30 30 32 33
43 42 32 20 19 19 25 21 20 26 30 35 41 43 42 42 46 43 35 38 49 48 44 41 32 35 36 34 34 35 35 38 37 35 33 30 28 28 27 27 27 28 29
43 42 28 18 20 23 23 18 28 32 31 32 35 39 44 45 44 46 38 31 31 34 34 32 31 33 33 32 32 31 29 29 28 29 28 26 23 23 24 24 24 24 25
44 43 30 22 22 24 20 19 27 31 31 32 38 40 42 44 42 47 40 31 30 29 28 29 31 31 32 31 31 28 25 23 23 23 23 23 24 24 24 22 23 24 25
46 45 36 29 29 27 23 20 24 30 31 35 41 43 45 47 41 38 35 34 30 29 28 28 30 32 35 36 32 27 26 27 22 20 21 22 22 23 23 25 27 28 30
48 47 44 35 35 35 32 28 25 27 31 33 41 44 46 48 45 39 36 37 32 30 30 30 30 33 38 41 42 35 37 39 28 24 24 26 27 28 29 30 30 31 32
52 49 49 46 40 41 41 38 36 31 29 32 35 40 43 47 46 47 43 36 36 34 32 32 32 35 41 47 52 51 45 40 48 55 45 39 35 32 32 32 32 32 34
64 56 51 50 50 46 44 45 43 42 38 31 32 35 38 40 43 40 40 42 37 36 36 34 34 39 48 54 56 61 54 51 56 59 61 60 50 44 43 37 34 34 36
81 73 64 58 55 52 51 48 47 47 46 44 36 33 36 36 36 37 34 37 39 38 37 37 36 36 51 58 59 60 56 54 54 57 61 64 65 57 53 54 51 40 36
86 96 95 78 64 59 57 54 53 50 49 49 48 42 35 36 35 35 37 33 34 37 38 38 37 36 35 49 56 57 55 56 63 61 59 64 61 64 60 60 61 53 47
66 87 83 84 94 76 65 61 58 55 54 51 51 51 48 42 40 38 36 34 29 30 34 37 36 34 33 32 50 54 53 56 67 67 66 66 67 64 65 64 62 57 54
47 52 62 70 72 86 91 72 66 62 59 56 53 52 52 50 47 40 38 34 30 25 26 30 34 34 32 28 27 43 51 54 62 68 67 66 66 65 64 66 66 61 56
34 40 49 54 68 70 75 90 83 73 68 64 60 56 52 51 48 48 40 37 34 29 24 25 26 30 30 30 21 20 40 50 56 66 68 67 65 63 62 64 66 63 58
34 34 38 44 62 71 71 83 86 87 80 73 69 64 59 54 51 47 47 44 35 32 26 23 25 26 28 29 28 20 18 33 46 63 66 62 62 64 64 63 65 64 62
45 43 36 37 40 49 72 96 99 88 81 75 70 71 72 65 56 52 48 44 42 35 34 29 25 25 27 27 25 24 19 21 43 57 62 57 49 58 62 65 70 72 70
54 54 44 42 41 41 45 65 86 92 95 84 77 74 76 76 70 63 57 46 41 40 36 36 33 30 27 27 24 22 21 20 25 40 48 45 48 52 56 59 66 71 73
47 52 57 50 39 36 39 41 52 77 90 92 83 77 75 78 80 75 65 54 49 48 43 37 40 41 44 40 29 26 23 23 23 22 24 31 38 45 58 58 63 68 59
43 43 44 52 59 52 42 51 65 81 95 93 97 87 83 80 81 78 78 70 58 54 49 45 41 49 46 56 67 50 31 27 24 24 25 26 29 33 40 45 46 46 48
44 43 44 45 49 54 54 46 48 76 96 100 100 100 99 91 86 87 81 71 70 65 59 54 50 57 68 65 74 69 55 46 50 47 37 40 40 37 41 45 46 47 46
46 44 45 49 52 54 56 63 72 91 99 98 100 100 98 98 100 99 95 85 69 70 65 59 55 53 65 78 79 77 76 56 48 48 46 42 38 38 36 35 35 35 35
62 49 44 43 48 56 63 64 57 68 86 92 98 97 100 100 99 98 99 99 95 92 87 76 64 56 54 56 72 82 81 73 63 57 53 48 50 45 35 37 37 35 34
62 56 52 46 43 44 51 66 80 82 92 99 100 100 99 98 100 100 100 100 99 99 87 86 85 85 77 66 69 74 75 78 77 75 64 63 66 62 57 50 43 43 43
47 44 41 42 41 44 44 48 52 62 70 77 96 99 100 96 99 97 100 100 100 98 100 100 89 83 89 90 84 90 92 87 82 82 86 77 72 65 60 62 57 46 43
48 46 44 44 51 50 47 44 46 49 47 49 56 71 91 88 96 94 94 88 99 97 97 96 100 99 99 98 95 100 100 100 94 92 91 84 84 82 83 80 78 73 62
Wind_Speed
25 21 18 18 17 16 17 18 18 19 19 21 21 20 18 16 17 17 18 18 20 20 18 16 14 14 14 14 16 17 16 16 17 17 17 17 17 17 16 15 15 15 15
25 22 17 17 16 16 16 16 17 17 18 18 20 17 16 16 17 17 18 18 18 18 15 14 14 14 14 14 15 16 15 15 15 15 15 16 15 14 14 13 12 13 13
23 21 19 17 16 15 15 16 16 16 17 18 17 17 17 17 17 17 16 15 17 16 14 14 14 15 15 15 15 15 14 14 13 13 13 13 13 12 12 11 11 11 11
23 21 18 18 17 15 15 16 17 17 17 18 18 18 18 18 17 16 15 15 16 15 15 14 15 15 16 15 15 14 14 14 13 12 11 12 12 11 10 10 10 9 9
24 21 18 18 16 15 15 15 17 17 17 17 18 18 18 16 15 15 15 16 16 16 16 15 16 15 15 15 14 14 13 13 13 11 10 10 9 9 8 8 8 7 7
24 21 18 17 15 14 14 14 15 15 15 17 18 17 16 14 14 15 16 16 16 16 16 15 16 15 15 15 14 14 12 13 12 11 10 8 7 7 6 5 5 5 6
23 21 19 17 14 14 12 12 13 13 14 16 17 17 15 14 14 15 15 16 16 15 15 15 15 15 14 13 12 12 12 12 11 10 8 7 6 5 4 3 3 4 3
21 20 18 16 14 12 12 11 11 12 13 15 16 16 15 14 15 14 14 16 16 15 15 15 15 15 15 13 12 12 12 10 10 9 8 6 5 4 3 2 1 1 1
15 16 16 15 14 12 11 11 10 10 11 13 14 15 14 14 14 14 14 15 16 16 16 16 16 16 15 14 12 13 11 11 10 8 7 6 4 3 3 1 1 2 2
14 15 14 14 14 13 12 12 12 11 11 11 13 14 14 14 14 13 14 15 15 16 17 17 17 17 16 15 13 11 11 11 8 8 7 5 5 3 1 1 2 3 4
10 14 15 16 15 15 15 14 14 14 14 14 14 15 15 15 15 15 14 14 15 16 17 17 18 19 19 18 16 14 13 12 10 10 9 8 8 7 6 4 4 5 6
0 4 13 17 19 19 19 19 18 17 17 16 16 16 16 16 16 16 15 15 16 17 18 19 19 20 21 22 20 18 17 15 13 12 11 10 12 12 11 10 8 8 8
9 6 11 16 20 22 22 22 22 22 21 20 19 18 17 18 18 18 18 18 18 19 20 21 22 22 22 23 24 23 21 20 17 15 14 13 14 16 15 14 12 11 11
16 12 8 14 17 20 23 25 25 25 25 25 24 22 21 20 20 20 20 19 20 20 20 22 23 23 24 24 26 28 26 25 23 20 19 17 16 16 17 18 17 15 14
16 15 15 9 15 18 22 25 27 29 29 29 28 26 25 24 23 22 22 22 22 21 21 22 23 24 25 25 26 29 31 29 28 26 24 22 21 20 20 21 20 20 18
19 18 17 16 11 17 21 24 26 29 32 33 32 31 29 28 26 25 24 24 24 22 22 23 23 24 25 26 27 28 31 33 31 31 28 26 26 25 23 23 24 24 24
19 20 19 17 16 13 19 24 26 27 28 32 35 34 33 32 30 29 28 27 26 25 24 25 25 26 27 27 29 29 31 34 36 35 34 33 31 30 29 28 28 28 29
20 18 19 20 19 17 15 18 26 28 28 28 31 33 35 35 34 33 32 31 29 27 27 27 27 27 28 29 29 30 32 34 37 38 39 37 36 35 33 32 31 32 33
25 22 18 16 20 21 21 19 19 23 29 27 27 29 31 35 37 37 36 35 33 31 31 30 29 29 29 30 31 32 32 34 36 38 40 40 40 40 38 37 37 37 37
23 23 22 21 17 14 18 18 16 16 19 27 28 28 30 33 34 38 40 39 37 36 35 35 33 31 32 31 29 33 34 34 36 37 39 40 40 40 40 41 41 39 37
29 26 25 25 23 21 16 17 14 11 12 19 22 25 28 32 33 35 36 40 41 41 40 38 36 35 33 32 31 34 34 36 36 37 38 40 40 41 41 40 41 41 40
31 31 30 25 25 24 21 21 18 16 8 13 17 22 22 22 25 32 36 36 39 41 42 41 40 39 37 35 33 33 38 38 38 36 36 38 40 41 43 43 43 43 43
29 31 30 31 29 25 22 20 17 11 8 14 17 17 14 20 27 29 26 31 37 41 43 41 41 40 42 39 36 34 15 20 28 28 21 19 25 29 25 27 31 36 41
25 25 27 29 31 31 27 23 21 19 19 16 15 14 16 17 16 26 30 31 32 36 45 45 44 43 41 42 42 41 40 41 39 36 39 36 36 43 45 43 42 37 34
26 28 27 26 27 29 30 28 24 22 20 19 13 12 10 12 13 19 13 22 31 23 21 35 47 48 46 44 45 42 40 40 40 42 41 37 38 44 48 48 48 47 45
22 26 28 29 29 28 26 26 26 25 25 23 21 20 17 15 12 13 13 8 15 18 12 12 12 34 47 40 39 35 36 30 28 29 35 41 42 47 46 47 46 48 48
Wind_Direction
164 161 157 155 159 159 157 151 146 143 147 154 151 146 142 138 137 139 140 140 143 147 145 139 132 127 125 120 120 122 124 126 124 122 117 113 109 107 107 108 106 105 104
159 156 155 158 161 160 157 155 154 148 148 154 156 153 147 145 144 143 142 140 146 150 147 141 134 132 128 122 121 122 124 122 124 124 122 118 115 112 110 109 108 107 110
161 156 155 159 160 161 157 152 151 149 149 154 159 157 152 149 145 144 146 147 149 152 148 143 136 134 131 129 127 126 127 124 126 126 126 123 119 117 118 119 117 115 115
162 157 153 155 159 161 158 154 150 150 151 154 157 156 151 148 147 147 148 149 154 155 151 145 141 141 137 136 134 134 128 127 128 127 129 128 126 126 125 124 120 119 122
164 157 150 152 155 160 158 156 153 152 153 154 154 153 150 151 153 155 154 153 153 155 154 151 149 147 143 143 143 140 137 137 134 131 130 128 126 127 125 122 120 121 118
164 157 152 151 153 157 157 156 155 155 156 157 157 156 155 157 160 161 160 158 159 159 159 157 156 153 153 153 151 144 142 139 133 130 131 134 135 130 123 121 124 128 130
165 162 157 156 158 157 159 159 161 161 164 165 165 165 164 164 164 164 165 165 166 166 166 165 164 162 161 162 158 153 142 134 133 134 136 133 124 125 135 140 141 132 123
170 167 165 162 166 164 165 165 167 170 173 176 176 177 174 173 171 169 169 170 172 174 175 175 174 174 173 173 169 164 154 149 146 141 137 135 140 153 164 168 137 101 127
178 179 178 175 175 179 178 175 176 180 184 187 189 190 188 186 182 180 179 177 179 181 183 185 186 185 186 183 178 172 169 161 152 146 145 152 165 168 164 172 253 304 301
183 191 197 197 196 196 199 194 191 190 194 200 201 203 204 201 197 193 190 188 189 190 191 193 195 197 197 195 194 194 188 182 180 186 188 201 215 206 205 210 246 279 293
183 197 207 209 214 216 217 216 212 207 206 205 210 212 214 213 211 208 203 200 199 200 201 202 203 206 208 207 207 208 207 204 209 214 211 226 238 239 242 259 268 272 281
146 232 232 225 222 222 224 229 226 224 221 219 218 221 223 224 223 221 218 215 212 210 209 210 211 213 216 216 216 219 217 219 222 224 228 244 246 242 244 251 262 267 269
37 297 269 246 237 232 232 230 232 233 232 230 229 228 228 232 231 230 228 226 223 221 219 218 218 219 222 225 225 226 227 225 229 235 239 250 251 244 242 246 257 264 269
36 23 288 264 264 256 245 240 240 239 239 239 237 235 234 236 238 238 237 236 235 233 230 228 227 228 229 231 232 232 232 232 234 239 242 245 249 247 247 248 254 262 266
23 18 13 306 254 258 266 258 247 246 244 244 244 242 242 241 243 245 246 245 244 241 240 238 236 235 235 235 237 236 236 235 238 242 247 250 253 255 257 255 256 263 266
11 6 7 6 327 259 252 265 262 256 252 251 247 247 249 248 248 249 251 251 252 250 248 247 246 244 244 242 241 240 239 240 242 245 250 254 257 260 262 263 262 266 269
11 357 351 355 351 334 274 256 263 266 265 261 256 251 249 251 253 253 253 254 256 256 256 254 251 250 249 247 246 243 243 240 242 245 250 255 260 262 264 265 267 268 272
21 12 351 342 341 339 328 289 267 266 266 268 266 260 254 253 255 256 255 256 256 257 256 256 255 255 255 252 251 250 248 247 247 248 252 255 258 263 265 267 269 271 275
14 15 12 353 333 328 324 320 305 276 270 267 269 268 265 261 260 259 259 259 260 258 257 258 257 257 259 260 260 258 255 255 255 255 256 257 261 265 267 269 270 273 275
20 10 7 8 2 336 320 325 316 304 292 279 273 269 270 270 268 264 262 261 260 259 258 256 257 258 259 263 268 269 267 263 261 262 263 264 264 265 268 271 272 273 272
25 20 12 5 3 1 353 323 333 313 290 287 285 283 282 278 275 275 273 266 263 262 262 262 261 260 261 263 271 273 274 271 268 267 267 267 267 269 269 270 272 273 273
36 26 23 18 10 7 0 1 1 357 301 288 278 276 269 269 278 283 276 270 270 268 266 264 261 260 261 261 262 269 278 279 272 274 274 275 275 276 277 277 278 277 277
37 35 29 23 20 16 9 358 352 7 347 292 279 274 286 267 269 262 268 273 271 271 271 269 266 261 260 261 261 255 260 266 283 283 283 280 286 293 290 292 293 287 281
39 35 32 28 21 19 16 18 19 18 15 9 353 329 287 296 275 266 264 261 260 266 271 269 269 265 262 257 260 260 260 264 269 283 281 281 278 279 284 284 286 295 302
46 40 35 33 28 19 16 16 21 25 24 25 16 4 319 284 300 272 276 258 262 249 252 262 267 265 262 259 259 262 264 268 268 266 276 280 281 283 287 290 292 292 290
39 36 33 30 29 24 22 18 14 17 20 20 22 30 26 14 327 307 312 315 303 274 283 315 302 263 259 259 259 260 263 259 263 272 275 280 285 285 288 292 293 295 295